logo dgac
Lunes 27 de Septiembre del 2021
Buscar por aerodromo o helipuerto
Ingrese nombre de aeródromo, localidad o designador OACI:

Aeródromo: Quellón (PUB) (SCON)

Ubicación: Chiloé, X Región, Chile (43º 08' 07'' S, 73º 38' 04'' W) Ver ubicación en el mapa

Pistas

Orientación Dimensión Pendiente Superficie Resistencia APCH THR RWY PAPI
04/22 1200 X 24 0,80 ASPH PCN 15 F/C/Y/T No No
Horas de operación HJ
Elevación 13 m / 42 ft
Otra Información Adm : DGAC
Uso : PUB
Ubicado : 2 km SW de Quellón
email : aro.quellon@dgac.gob.cl

Otra información ver AIP-Chile Volumen I AD 3.9-3.8-C
CCCM/FCCV Descargar
andera de Chile
Mapa de Quellón (PUB) (SCON)

Último METAR

METAR SCON 270100Z AUTO 35004KT 320V040 CAVOK 05/04 Q1024

Último TAF

No hay tafs registrados para este aeródromo

Últimas fotos cámaras

Imagen aerodromo Quellón (PUB) (SCON) Sur tomada el 27-09-2021 01:21:44 Imagen aerodromo Quellón (PUB) (SCON) Norte tomada el 27-09-2021 01:27:58

Último NOTAM

No hay notams registrados para este aeródromo